Regional Weather Roundup
Issued by NWS Pendleton, OR

Home | Current Version | Previous Version | Text Only | Print | Product List | Glossary On
Versions: 1 2 3 4 5 6 7 8 9 10 11 12 13 14 15 16 17 18 19 20 21 22 23 24 25 26 27 28 29 30 31 32 33 34 35 36 37 38 39 40 41 42 43 44 45 46 47 48 49 50
000
ASUS46 KPDT 010010
RWRPDT
PENDLETON REGIONAL WEATHER ROUNDUP
NATIONAL WEATHER SERVICE PENDLETON OREGON
500 PM PDT FRI SEP 30 2016

NOTE: FAIR INDICATES FEW OR NO CLOUDS BELOW 12,000 FEET WITH NO
SIGNIFICANT WEATHER AND/OR OBSTRUCTIONS TO VISIBILITY.

# INDICATES UNOFFICIAL STATION AND DATA

WAZ520-010110-
EAST SLOPES OF WASHINGTON CASCADES

CITY            SKY/WX      TMP DP  RH  WIND    PRES   REMARKS
#BULLFROG       N/A         55  N/A N/A W3      N/A
#CLIFFDEL 2NW   N/A         55  N/A N/A S1      N/A
#EASTON DOT     N/A         55  86  100 N3      N/A
#ELK HTS DOT    N/A         55  140 100 CALM    N/A
#NILE           N/A         65  39  38  CALM    29.08F
#TEANAWAY 4NE   N/A         69  33  26  W3      N/A
$$

WAZ521-010110-
SIMCOE HIGHLANDS

CITY            SKY/WX      TMP DP  RH  WIND    PRES   REMARKS
#GOLDENDALE     N/A         55  32  41  S10     N/A
#GOLDENDALE 1NE N/A         67  21  17  SW6     N/A
#GOLDENDALE 4W  N/A         68  47  47  W13     29.92S
$$

WAZ026-010110-
KITTITAS VALLEY

CITY            SKY/WX      TMP DP  RH  WIND    PRES   REMARKS
6HR MIN TEMP:   64; 6HR MAX TEMP:   75;

#ELLENSBURG CWU N/A         73  34  24  NE1     29.75F
#MANASTASH RDG  N/A         55  140 100 S1      N/A
#ROCKY CYN DOT  N/A         55  N/A N/A CALM    N/A
#RYEGRASS DOT   N/A         55  140 100 S1      N/A
$$

WAZ027-010110-
YAKIMA VALLEY

CITY            SKY/WX      TMP DP  RH  WIND    PRES   REMARKS
6HR MIN TEMP:   62; 6HR MAX TEMP:   74;

6HR MIN TEMP:   66; 6HR MAX TEMP:   77;

6HR MIN TEMP:   64; 6HR MAX TEMP:   74;

#OUTLOOK DOT    N/A         55  14  19  W3      N/A
#UNION GAP DOT  N/A         55  N/A N/A W3      N/A
#ZILLAH DOT     N/A         55  14  19  W3      N/A
$$

WAZ028-010110-
LOWER COLUMBIA BASIN...WASHINGTON

CITY            SKY/WX      TMP DP  RH  WIND    PRES   REMARKS
6HR MIN TEMP:   70; 6HR MAX TEMP:   76;

#PROSSER DOT    N/A         55  86  100 W3      N/A
#TOUCHET 2S     N/A         71  45  39  W1      29.80R
#WEST PASCO     N/A         75  46  36  N2      29.79S
$$

WAZ029-010110-
FOOTHILLS OF THE BLUES...WASHINGTON

CITY            SKY/WX      TMP DP  RH  WIND    PRES   REMARKS
6HR MIN TEMP:   66; 6HR MAX TEMP:   75;

#DELANEY DOT    N/A         55  86  100 W3      N/A
$$

WAZ030-010110-
BLUE MOUNTAINS...WASHINGTON

CITY            SKY/WX      TMP DP  RH  WIND    PRES   REMARKS
$$

ORZ009-041-WAZ024-010110-
COLUMBIA RIVER GORGE

CITY            SKY/WX      TMP DP  RH  WIND    PRES   REMARKS
6HR MIN TEMP:   67; 6HR MAX TEMP:   75;

#ARLINGTON AIRPON/A         74  40  29  W12     29.81F
#MARYHILL       N/A         55  140 100 NE7     N/A
#SMITHVILLE     N/A         69  45  42  N18G31  29.79F

$$

ORZ510-010110-
NORTH CENTRAL OREGON

CITY            SKY/WX      TMP DP  RH  WIND    PRES   REMARKS
#MAUPIN SCHOOL  N/A         73  44  35  NW6     29.89S
#WASCO AIRPORT  N/A         70  38  31  W15     N/A
$$

ORZ511-010110-
CENTRAL OREGON

CITY            SKY/WX      TMP DP  RH  WIND    PRES   REMARKS
6HR MIN TEMP:   66; 6HR MAX TEMP:   77;

#BEND 1SW       N/A         65  31  28  NW3     N/A
#BEND-AWBREY    N/A         70  33  25  W3      29.79R
#CULVER 8W      N/A         67  33  28  CALM    29.93R
#MADRAS         N/A         55  32  41  NW8     N/A
#MADRAS 4S      N/A         70  14  11  CALM    29.97R

$$


ORZ509-010110-
EAST SLOPES OF OREGON CASCADES

CITY            SKY/WX      TMP DP  RH  WIND    PRES   REMARKS

$$

ORZ044-010110-
LOWER COLUMBIA BASIN...OREGON

CITY            SKY/WX      TMP DP  RH  WIND    PRES   REMARKS
6HR MIN TEMP:   68; 6HR MAX TEMP:   76; 6HR PCP:  TRACE;

#BOARDMAN 8SW   N/A         76  39  26  SE3     29.79F
#IRRIGON 4NW    N/A         55  50  83  N2      N/A
$$

ORZ507-010110-
NORTHERN FOOTHILLS OF THE BLUES

CITY            SKY/WX      TMP DP  RH  WIND    PRES   REMARKS
6HR MIN TEMP:   66; 6HR MAX TEMP:   73;


$$

ORZ508-010110-
SOUTHERN FOOTHILLS OF THE BLUES

CITY            SKY/WX      TMP DP  RH  WIND    PRES   REMARKS
LEXINGTON       CLOUDY      73  34  24  W3      29.90R
#FOSSIL SCHOOL  N/A         69  37  31  NE12    29.84R

$$

ORZ502-503-010110-
BLUE MOUNTAINS

CITY            SKY/WX      TMP DP  RH  WIND    PRES   REMARKS
6HR MIN TEMP:   66; 6HR MAX TEMP:   75;

$$

ORZ505-010110-
JOHN DAY BASIN

CITY            SKY/WX      TMP DP  RH  WIND    PRES   REMARKS
$$

ORZ506-010110-
OCHOCO AND JOHN DAY HIGHLANDS

CITY            SKY/WX      TMP DP  RH  WIND    PRES   REMARKS
$$

ORZ049-010110-
GRANDE RONDE VALLEY

CITY            SKY/WX      TMP DP  RH  WIND    PRES   REMARKS
#LA GRANDE ELEM N/A         79  36  21  SW3     29.85S
$$

ORZ050-010110-
WALLOWA COUNTY

CITY            SKY/WX      TMP DP  RH  WIND    PRES   REMARKS
#JOSEPH 3W      N/A         70  37  30  CALM    29.80F
#LOSTINE 3SE    N/A         75  34  22  E2      29.88S



$$



USA.gov is the U.S. government's official web portal to all federal, state and local government web resources and services.